SCP
0 0 0 0 0 0 0 0 0 0 0 0 0 0 0 0 0 0 0 0 0 0 0 0 0 0 0 0 0 0 0 0 0 0 0 0 0 0 0 0 0 0 0
0 0 0 0 0 0 0 0 0 0 0 0 0 0 0 0 0 0 0 0 0 0 0 0 0 0 0 0 0 0 0 0 0 0 0 0 0 0 0 0 0 0 0
0 0 0 0 0 0 0 0 0 0 0 0 0 0 0 0 0 0 0 0 0 0 0 0 0 0 0 0 0 0 0 0 0 0 0 0 0 0 0 0 0 0 0
0 0 0 0 0 0 0 0 0 0 0 0 0 0 0 0 0 0 0 0 0 0 0 0 0 0 0 0 0 0 0 0 0 0 0 0 0 0 0 0 0 0 0
0 0 0 0 -0 0 0 0 0 0 0 0 0 0 0 0 0 0 0 0 0 0 0 0 0 0 0 0 0 0 0 0 0 0 0 0 0 0 0 0 0 0 0
0 0 -0 -0 -0 0 0 0 0 0 0 0 0 0 0 0 0 0 0 0 0 0 0 0 0 0 0 0 0 0 0 0 0 0 0 0 0 0 0 0 0 0 0
0 0 0 0 0 0 0 0 0 0 0 0 0 0 0 0 0 0 0 0 0 0 0 0 0 0 0 0 0 0 0 0 0 0 0 0 0 0 0 0 0 0 0
0 0 0 0 0 0 0 0 0 0 0 0 0 0 0 0 0 0 0 0 0 0 0 0 0 0 0 0 0 0 0 0 0 0 0 0 0 0 0 0 0 0 0
0 0 0 0 0 0 0 0 0 0 0 0 0 0 0 0 0 0 0 0 0 0 0 0 0 0 0 0 0 0 0 0 0 0 0 0 0 0 0 0 0 0 0
0 0 0 0 0 0 0 0 0 0 0 0 0 0 0 0 0 0 0 0 0 0 0 0 0 0 0 0 0 0 0 0 0 0 0 0 0 0 0 0 0 0 0
0 0 0 0 0 0 0 0 0 0 0 0 0 0 0 0 0 0 0 0 0 0 0 0 0 0 0 0 0 0 0 0 0 0 0 0 0 0 0 0 0 0 0
0 0 0 0 0 0 0 0 0 0 0 0 0 0 0 0 0 0 0 0 0 0 0 0 0 0 0 0 0 0 0 0 0 0 0 0 0 0 0 0 0 0 0
0 0 0 0 0 0 0 0 0 0 0 0 0 0 0 0 0 0 0 0 0 0 0 0 0 0 0 0 0 0 0 0 0 0 0 0 0 0 0 0 0 0 0
0 0 0 0 0 0 0 0 0 0 0 0 0 0 0 0 0 0 0 0 0 0 0 0 0 0 0 0 0 0 0 0 0 0 0 0 0 0 0 0 0 0 0
0 0 0 0 0 0 0 0 0 0 0 0 0 0 0 0 0 0 0 0 0 0 0 0 0 0 0 0 0 0 0 0 0 0 0 0 0 0 0 0 0 0 0
0 0 0 0 0 0 0 0 0 0 0 0 0 0 0 0 0 0 0 0 0 0 0 0 0 0 0 0 0 0 0 0 0 0 0 0 0 0 0 0 0 0 0
0 0 0 0 0 0 0 0 0 0 0 0 0 0 0 0 0 0 0 0 0 0 0 0 0 0 0 0 0 0 0 0 0 0 0 0 0 0 0 0 0 0 0
0 0 0 0 0 0 0 0 0 0 0 0 0 0 0 0 0 0 0 0 0 0 0 0 0 0 0 0 0 0 0 0 0 0 0 0 0 0 0 0 0 0 0
0 0 0 0 0 0 0 0 0 0 0 0 0 0 0 0 0 0 0 0 0 0 0 0 0 0 0 0 0 0 0 0 0 0 0 0 0 0 0 0 0 0 0
0 0 0 0 0 0 0 0 0 0 0 0 0 0 0 0 0 0 0 0 0 0 0 0 0 0 0 0 0 0 0 0 0 0 0 0 0 0 0 0 0 0 0
0 0 0 0 0 0 0 0 0 0 0 0 0 0 0 0 0 0 0 0 0 0 0 0 0 0 0 0 0 0 0 0 0 0 0 0 0 0 0 0 0 0 0
0 0 0 0 0 0 0 0 0 0 0 0 0 0 0 0 0 0 0 0 0 0 0 0 0 0 0 0 0 0 0 0 0 0 0 0 0 0 0 0 0 0 0
0 0 0 0 0 0 0 0 0 0 0 0 0 0 0 0 0 0 0 0 0 0 0 0 0 0 0 0 0 0 0 0 0 0 0 0 0 0 0 0 0 0 0
0 0 0 0 0 0 0 0 0 0 0 0 0 0 0 0 0 0 0 0 0 0 0 0 0 0 0 0 0 0 0 0 0 0 0 0 0 0 0 0 0 0 0
0 0 0 0 0 0 0 0 0 0 0 0 0 0 0 0 0 0 0 0 0 0 0 0 0 0 0 0 0 0 0 0 0 0 0 0 0 0 0 0 0 0 0
0 0 0 0 0 0 0 0 0 0 0 0 0 0 0 0 0 0 0 0 0 0 0 0 0 0 0 0 0 0 0 0 0 0 0 0 0 0 0 0 0 0 -0
Wind_Speed
0 0 1 1 2 2 2 3 3 4 4 5 5 5 6 6 6 6 6 6 6 6 5 5 5 5 4 4 3 3 3 2 4 4 3 5 5 6 7 6 6 5 6
1 1 1 1 1 2 2 3 3 3 4 4 4 5 5 5 5 5 5 5 5 5 5 5 5 4 5 4 3 4 3 3 3 6 4 4 5 6 7 7 6 6 5
2 2 1 1 1 1 1 2 2 3 3 4 4 4 4 4 4 4 4 4 4 4 4 4 4 4 4 3 4 3 3 3 3 4 5 4 4 5 7 7 7 6 6
3 2 2 1 1 1 0 1 1 1 2 3 3 3 3 3 3 3 3 3 3 3 3 3 3 3 3 3 3 3 3 3 3 3 4 4 4 5 5 6 7 5 6
4 3 3 2 1 1 0 0 1 1 2 2 2 3 3 2 2 2 2 2 3 3 3 3 4 5 7 5 4 4 4 3 3 4 4 5 5 5 6 6 7 7 6
5 4 3 2 2 2 1 1 0 1 1 1 2 2 3 3 4 4 2 2 2 2 3 3 4 5 7 9 10 9 7 5 5 4 4 6 6 6 5 6 7 7 6
5 4 4 3 3 2 2 1 1 1 0 1 1 1 2 3 5 5 4 1 1 2 3 3 4 5 7 4 7 9 8 10 9 6 5 6 7 6 6 7 7 7 8
5 4 4 4 3 3 2 2 2 1 1 1 1 1 2 4 5 5 4 1 1 2 3 3 3 4 5 6 4 4 4 5 7 5 4 6 6 6 6 7 8 8 7
5 5 5 5 4 3 4 3 2 2 1 1 1 2 2 4 6 5 4 1 2 3 3 3 4 4 9 11 6 5 6 5 8 10 11 11 13 14 11 6 6 6 8
7 6 5 5 5 5 4 3 2 2 2 2 2 2 2 3 6 6 5 1 2 3 3 4 7 8 10 11 5 5 7 6 6 6 7 9 8 9 11 6 5 6 6
5 4 4 4 5 5 4 3 2 2 1 2 3 3 3 4 5 7 6 2 2 3 3 3 4 11 12 12 10 5 8 9 5 5 5 5 5 4 5 4 4 5 6
4 4 4 4 4 4 4 3 2 3 2 2 2 3 3 3 4 6 7 7 6 3 4 4 5 11 12 12 9 10 13 10 4 4 5 5 5 5 5 5 6 6 7
5 5 4 4 4 3 4 4 2 3 2 3 2 3 3 2 3 7 8 8 9 5 4 8 10 12 11 8 10 12 9 4 4 5 5 5 4 5 5 5 6 7 8
5 5 4 4 3 3 3 3 3 3 3 3 3 3 3 3 3 3 3 4 6 6 5 7 10 10 8 9 8 6 4 4 4 5 6 6 5 5 5 5 6 6 6
5 4 4 4 4 4 4 4 5 5 5 5 4 4 3 4 5 7 5 4 3 5 5 3 2 3 4 4 4 4 3 4 5 5 5 6 7 6 6 5 5 6 6
5 5 4 4 4 3 3 3 6 6 8 9 8 6 5 7 9 9 9 9 10 10 6 3 4 4 5 5 5 5 4 5 5 5 5 6 6 7 7 6 6 6 7
6 5 4 4 4 4 4 3 3 3 5 7 7 8 7 8 8 9 9 9 9 8 3 3 4 5 5 5 5 5 6 5 5 5 6 6 6 6 7 7 6 6 7
6 7 6 4 4 4 4 4 3 3 3 3 4 7 7 8 8 8 8 6 4 4 3 4 4 5 5 5 5 6 6 6 6 6 6 6 6 6 7 7 7 7 8
5 4 4 4 4 4 4 3 3 3 3 3 2 4 6 6 7 7 6 3 3 4 4 4 5 5 5 5 5 6 6 7 7 6 6 7 6 6 7 7 8 12 10
5 8 6 4 4 4 4 4 4 4 3 3 3 3 3 3 3 3 3 3 3 4 4 5 5 5 5 5 6 6 7 7 7 7 7 7 6 6 8 9 8 8 8
4 5 8 5 4 4 4 4 4 4 4 4 4 4 6 3 3 4 4 4 4 4 5 5 5 5 5 5 5 6 8 8 7 7 7 7 7 7 7 8 8 8 8
4 4 4 4 4 4 4 4 4 4 4 5 3 4 7 4 3 4 4 4 4 4 4 5 5 5 5 5 6 7 8 8 8 7 7 7 7 8 8 8 8 8 8
5 5 4 4 4 6 5 4 4 4 4 4 4 3 3 3 4 4 4 4 4 4 4 5 6 6 6 6 6 7 8 9 8 8 8 8 8 8 7 8 9 9 9
5 5 5 4 4 4 4 4 4 4 4 4 4 4 4 4 4 5 4 4 4 4 5 5 6 8 10 9 7 7 8 10 10 9 10 10 9 8 8 8 9 10 9
5 5 5 5 5 5 5 5 4 4 4 4 4 4 4 4 4 4 4 4 5 5 7 7 6 7 10 12 11 10 14 19 16 11 9 9 10 10 9 9 9 9 9
5 5 5 4 5 5 5 5 5 5 5 4 4 4 4 4 4 4 4 4 5 5 6 6 7 9 11 10 12 15 18 19 18 18 11 8 9 8 8 7 9 8 9
Wind_Direction
232 72 72 57 48 52 49 33 27 25 21 23 25 27 27 27 27 38 40 38 40 33 31 36 29 24 21 10 6 4 350 324 286 300 319 327 329 331 328 323 318 314 312
187 151 123 81 61 54 40 28 27 25 22 23 28 33 31 29 30 36 37 36 39 34 27 30 21 16 20 12 11 4 351 338 307 303 312 323 323 326 321 320 323 320 314
174 159 145 116 87 56 35 23 27 23 22 23 30 31 27 25 29 30 36 37 38 32 23 28 14 10 10 2 3 356 340 337 325 307 311 319 315 328 328 326 324 322 323
177 170 178 188 180 169 78 40 33 29 29 20 19 18 17 18 23 21 31 34 31 25 16 17 8 0 351 343 349 344 336 334 330 319 312 317 318 322 327 332 329 331 324
182 186 203 200 180 161 135 62 32 32 26 16 16 9 1 2 10 15 27 31 24 16 11 4 356 360 359 355 351 346 342 335 330 325 321 323 327 336 335 328 322 321 314
190 200 199 184 179 180 188 176 76 23 4 11 6 355 351 351 358 7 16 28 20 9 356 346 340 347 349 351 347 347 344 334 325 317 316 316 316 316 316 315 316 319 316
196 200 195 189 193 198 187 179 203 230 247 315 324 339 327 328 344 350 356 21 9 343 336 336 337 339 342 324 328 334 334 331 325 312 304 302 303 308 307 304 302 300 293
198 203 200 194 201 199 190 206 220 219 224 245 279 296 304 316 333 337 339 2 327 313 310 305 305 308 314 317 312 313 306 307 309 303 282 286 293 295 290 292 294 294 286
204 208 204 197 200 201 208 217 216 208 229 243 258 273 287 302 322 323 324 283 288 292 292 296 302 293 310 321 320 311 307 302 311 311 310 309 312 314 314 310 307 304 298
212 209 200 193 196 206 214 216 212 208 226 246 271 267 269 283 305 312 314 266 284 288 290 290 304 309 312 316 309 302 302 299 299 305 306 306 305 307 313 306 297 294 296
203 194 193 194 198 204 204 202 202 210 224 250 266 274 270 276 295 305 308 288 274 286 293 294 294 311 313 314 312 297 296 304 302 301 299 296 296 294 297 294 290 282 284
184 192 199 198 199 193 190 201 199 197 214 244 260 275 266 272 287 294 301 302 300 285 289 287 290 307 313 315 313 307 309 313 304 299 297 297 298 298 295 293 287 276 265
185 198 202 196 198 190 189 198 201 200 213 238 245 262 272 268 278 293 301 305 306 299 286 297 303 310 316 315 313 315 318 311 301 300 300 297 290 284 289 292 290 284 277
193 201 194 191 199 198 200 201 203 207 215 231 242 253 265 271 267 270 272 286 297 297 290 294 304 310 310 309 312 315 310 299 301 295 298 297 294 291 292 295 296 301 294
196 198 195 197 198 201 209 213 215 215 210 222 230 232 247 264 272 285 294 287 284 283 297 293 296 302 303 301 297 292 291 298 301 295 296 300 301 300 299 298 291 293 287
196 199 197 195 197 198 208 239 243 238 245 248 249 249 256 267 284 290 296 298 301 302 304 297 297 297 297 300 301 301 296 295 294 294 293 292 295 296 296 294 289 286 287
200 199 195 194 196 199 203 212 242 260 253 256 260 265 267 277 285 291 295 298 300 305 296 285 285 289 291 293 294 293 294 293 289 286 285 285 285 287 288 290 290 288 286
199 200 196 196 195 199 204 208 213 228 254 263 264 269 275 280 286 292 296 300 295 297 280 278 280 284 287 288 289 289 291 292 288 285 281 280 279 281 283 284 283 281 284
195 197 194 192 194 198 199 201 210 221 236 252 264 273 277 284 286 288 294 277 275 278 278 277 278 281 282 284 285 285 285 285 285 284 281 278 277 277 278 279 280 285 286
200 204 195 190 192 195 197 202 209 216 227 238 249 255 268 272 269 276 274 269 269 273 276 277 280 279 281 281 282 283 284 283 283 279 278 276 274 272 275 278 280 282 281
193 199 198 194 197 199 200 206 209 213 224 236 244 252 261 261 260 266 270 269 268 273 277 279 280 280 278 278 278 279 280 281 279 278 276 274 272 273 273 274 276 276 279
188 192 192 197 199 201 205 206 207 215 226 237 248 257 264 260 256 261 264 269 270 271 274 277 278 276 274 275 278 280 280 280 278 276 274 272 270 271 273 274 275 276 277
188 192 197 201 201 211 212 205 208 215 225 232 239 246 254 253 255 259 263 268 273 276 277 275 277 279 277 274 272 273 275 278 278 277 277 275 273 272 271 271 273 274 276
191 196 199 200 201 204 207 210 212 218 223 229 234 240 245 250 258 264 266 269 273 275 276 276 275 278 282 285 282 278 275 278 278 274 271 270 270 270 269 268 268 269 272
195 200 202 203 204 206 209 213 214 217 223 229 233 239 244 251 258 264 267 270 274 277 279 280 279 281 285 287 288 287 287 291 290 285 273 267 266 267 267 268 268 270 271
199 202 205 205 206 206 208 214 216 217 222 228 231 234 241 248 255 260 265 269 275 281 283 284 282 286 290 290 290 293 297 299 299 297 292 277 271 270 268 268 270 272 274